Location: Arapaho Elementary School
(32.9607°N, 96.7625°W)
Time: 19:14:26
(UTC+00:00)

H-2A R/B (2) - Pass Details

Date: 03 July 2022
Orbit: 428 x 34396 km, 28.9° (Epoch: 07 August)

Event Time Altitude Azimuth Distance (km) Brightness Sun altitude
Exits shadow 06:57:10 11° 168° (SSE) 19,299 8.6 -33.7°
Maximum altitude 15:16:10 65° 161° (SSE) 8,794 8.3 46.1°
Drops below altitude 10° 15:39:29 10° 85° (E) 5,491 7.2 51.0°
Sets 15:41:43 0° 82° (E) 5,788 7.1 51.5°
